Regional Weather Roundup
Issued by NWS

Home | Current Version | Previous Version | Graphics & Text | Print | Product List | Glossary On
Versions: 1 2 3 4 5 6 7 8 9 10 11 12 13 14 15 16 17 18 19 20 21 22 23 24 25 26 27 28 29 30 31 32 33 34 35 36 37 38 39 40 41 42 43 44 45 46 47 48 49 50
000
ASUS43 KMKX 230700
RWRWI

WISCONSIN REGIONAL WEATHER ROUNDUP
NATIONAL WEATHER SERVICE MILWAUKEE/SULLIVAN WI
200 AM CDT WED JUL 23 2014

NOTE: "FAIR" INDICATES FEW OR NO CLOUDS BELOW 12,000 FEET WITH NO
SIGNIFICANT WEATHER AND/OR OBSTRUCTIONS TO VISIBILITY.

WIZ001-002-006>008-014>016-023>028-230800-
NORTHWEST WISCONSIN

CITY           SKY/WX    TMP DP  RH WIND       PRES   REMARKS
SUPERIOR ARPT  CLEAR     54  53  97 SW3       30.17R
ASHLAND        CLEAR     56  55  97 W5        30.17S
HAYWARD        CLEAR     54  52  93 CALM      30.19R
SIREN          PTCLDY    57  54  91 CALM      30.19S
RICE LAKE      CLEAR     58  56  93 CALM      30.20R
LADYSMITH      CLEAR     58  56  93 N3        30.19R
EAU CLAIRE     NOT AVBL
MENOMONIE      SUNNY     63  61  91 CALM      30.18R
NEW RICHMOND   CLEAR     61  57  85 N5        30.18S
OSCEOLA        CLEAR     62  59  89 CALM      30.21R
$$

WIZ003>005-009-010-017-018-230800-
NORTH CENTRAL WISCONSIN

CITY           SKY/WX    TMP DP  RH WIND       PRES   REMARKS
WOODRUFF         N/A     52  49  89 CALM      30.17S FOG
RHINELANDER    CLEAR     55  54  96 CALM      30.17R
EAGLE RIVER    FOG       50  50 100 CALM      30.16S VSB 1/4
LAND O LAKES   CLEAR     49  49  99 CALM      30.18R
PHILLIPS       CLEAR     54  54  99 CALM      30.17S FOG
TOMAHAWK       CLEAR     51  50  95 CALM      30.17S FOG
MEDFORD        CLEAR     57  56  95 CALM      30.17R
MERRILL        CLEAR     53  53  99 CALM      30.16R
$$

WIZ029-030-035-036-043>047-230800-
CENTRAL WISCONSIN

CITY           SKY/WX    TMP DP  RH WIND       PRES   REMARKS
WAUSAU         CLEAR     61  57  87 N6        30.14R
MOSINEE        CLEAR     59  57  94 N3        30.16S
MARSHFIELD     CLEAR     61  57  87 N5        30.16R
STEVENS POINT  CLEAR     59  56  91 N5        30.15R
WAUPACA        CLEAR     62  59  88 CALM      30.14R
WAUTOMA        NOT AVBL
WISC RAPIDS    CLEAR     64  58  80 NE6       30.16R
CAMP DOUGLAS   CLEAR     61  61 100 CALM      30.15R
$$

WIZ011>013-019>022-031-037>040-048>050-230800-
NORTHEAST WISCONSIN

CITY           SKY/WX    TMP DP  RH WIND       PRES   REMARKS
ANTIGO         CLEAR     55  55  99 CALM      30.16R
STURGEON BAY   CLEAR     63  54  72 N14       30.11R
GREEN BAY      CLEAR     61  56  83 N6        30.12R
MANITOWOC      NOT AVBL
APPLETON       CLEAR     61  54  77 N6        30.13R
CLINTONVILLE   CLEAR     59  54  82 CALM      30.14R
OSHKOSH        CLEAR     66  56  70 NE10      30.12R
$$

WIZ032>034-041-042-053>061-230800-
SOUTHWEST WISCONSIN

CITY           SKY/WX    TMP DP  RH WIND       PRES   REMARKS
LA CROSSE      CLEAR     70  59  68 NE6       30.14R
SPARTA         CLEAR     64  56  74 CALM      30.15R
VIROQUA        FAIR      64  58  80 NE6       30.15R
BOSCOBEL       CLEAR     69  61  75 CALM      30.13R
PRAIRIE DU CHI CLEAR     71  61  71 N5        30.11R
PLATTEVILLE    FAIR      67  64  87 N8        30.12R
$$

WIZ056-057-062-063-064-067-068-230800-
SOUTH CENTRAL WISCONSIN

CITY           SKY/WX    TMP DP  RH WIND       PRES   REMARKS
BARABOO/DELLS  CLEAR     66  57  74 NE8       30.13R
LONE ROCK      NOT AVBL
WATERTOWN      CLEAR     67  61  80 N9        30.10R
MADISON        CLEAR     69  60  73 N12       30.12R
MIDDLETON      FAIR      68  61  77 N7        30.12R
MONROE         CLEAR     70  63  78 NE18      30.09R
JANESVILLE     CLEAR     72  61  68 N9G17     30.07R
$$

WIZ051-052-058>065-066-070>072-230800-
SOUTHEAST WISCONSIN

CITY           SKY/WX    TMP DP  RH WIND       PRES   REMARKS
MILWAUKEE      PTCLDY    61  55  81 N12       30.09S
WAUKESHA       MOCLDY    61  55  82 NE9G16    30.11R
MILWAUKEE/TIMM PTCLDY    63  54  72 NE14G24   30.10R
RACINE         CLOUDY    64  57  78 NE17G26   30.10R
BURLINGTON     CLOUDY    64  58  81 NE10G17   30.09R
KENOSHA        CLOUDY    65  58  78 NE14G21   30.09R
FOND DU LAC    MOCLDY    66  56  70 NE9       30.12R
SHEBOYGAN      CLEAR     59  55  87 NE3       30.11R
WEST BEND      CLOUDY    63  55  77 NE8       30.11R
JUNEAU         CLEAR     65  58  76 N7        30.12R
$$

LSZ147-162-230800-
LAKE SUPERIOR

STATION/POSITION TIME  TEMP    WIND        PRES    WAVE
                       AIR SEA DIR/SP/G            HT/PER
                 (UTC) (F)     (DEG/KT/KT) (MB)    (FT/S)
W MID LAKE BUOY  0550   48 40   20/  8/ 10 1021.3R   1
PORT WING        0600   58     130/  2/  3 1021.3R
SAXON HARBOR     0640           CALM  /  3 1021.3R
$$

LMZ867-665-643>646-230800-
LAKE MICHIGAN

STATION/POSITION TIME  TEMP    WIND        PRES    WAVE
                       AIR SEA DIR/SP/G            HT/PER
                 (UTC) (F)     (DEG/KT/KT) (MB)    (FT/S)
N MID LAKE BUOY  0550   57 53  350/ 12/ 16 1017.4R   3/ 5
NORTHPORT PIER   0600   63     360/ 17/ 22 1018.6R
KEWAUNEE LAKESHO 0600   60      30/  3/  4 1019.8R
SHEBOYGAN LAKESH 0600   58      10/ 14/ 15 1019.1R
PORT WASHINGTON  0600   63      20/ 10/ 16 1019.3R
ATWATER BUOY     0600   52     350/  8     1019.6R
MILWAUKEE LAKESH 0600           30/ 16/ 18   N/A
S MID LAKE BUOY  0550   65 63  360/ 25/ 31 1015.6R   3/ 4
KENOSHA   LAKESH 0600   60      20/ 16/ 17   N/A
$$

TC  - TEMPERATURE IN CELSIUS
VSB - VISIBILITY IN STATUTE MILES
WCI - WIND CHILL INDEX
HX  - HEAT INDEX




USA.gov is the U.S. government's official web portal to all federal, state and local government web resources and services.